CAPE
0 0 0 0 0 1 0 0 0 0 0 0 0 0 0 38 0 39 287 366 290 541 1157 1202 1690 2126 1847 1690 1372 1006 587 14 8 9 17 12 9 11 6 11 14 15 14 26 18 104 187 173 192
0 0 0 1 0 0 0 0 0 0 0 0 0 15 195 196 429 333 431 541 317 1104 1200 997 1880 2028 1887 1638 894 764 393 124 19 19 13 13 6 12 7 23 24 20 27 11 57 150 136 144 104
0 0 0 1 0 0 0 0 0 0 0 0 0 0 8 323 448 400 374 689 405 1333 1045 1103 2012 1946 1775 1462 996 661 299 13 19 43 25 23 28 11 26 18 42 24 18 55 136 86 99 73 112
0 0 0 0 0 0 0 0 0 0 0 0 0 0 359 423 424 373 917 668 717 1274 954 1718 1824 1944 1574 1172 870 520 183 8 12 41 49 52 30 32 24 31 24 10 35 80 60 87 84 85 94
0 0 0 0 0 0 0 0 0 0 0 0 0 0 560 686 361 828 1101 848 973 1115 1406 1443 1781 1645 1318 1017 752 428 239 28 20 27 34 35 48 34 27 26 24 14 51 63 122 150 97 93 86
0 0 0 0 0 0 0 0 0 0 0 0 0 22 596 624 931 1096 1193 1014 1012 1100 1499 1344 1351 1265 1105 869 591 352 165 84 27 47 30 27 51 28 17 16 12 40 52 87 84 92 99 78 47
0 0 0 0 0 0 0 0 0 0 0 0 0 243 663 750 1043 1707 1313 1147 1133 1145 1311 1163 914 749 642 482 364 206 112 26 58 53 40 44 56 51 23 18 35 61 46 85 83 77 58 40 23
0 0 0 0 0 0 0 0 0 0 0 0 0 62 611 834 1709 1675 1761 1724 1354 1067 1227 1009 776 608 1049 345 281 146 25 23 46 38 32 41 46 44 39 14 78 78 73 85 83 51 41 32 16
0 0 0 0 0 0 0 0 0 0 0 0 0 257 726 1054 1663 1606 2013 1630 1483 1561 1418 1010 730 463 646 317 288 157 14 29 37 21 24 16 7 8 10 9 66 80 78 86 47 28 19 14 2
2 0 0 0 0 0 0 0 0 0 0 0 239 821 868 972 1802 1877 1311 1448 1583 1440 1393 846 624 413 623 539 309 161 8 0 6 2 2 8 12 8 8 5 61 55 46 64 22 5 1 0 0
0 0 0 0 0 0 0 0 0 0 0 0 131 1204 860 1082 2144 1093 1641 1453 1367 1252 1423 685 583 512 758 599 248 167 67 0 3 4 8 8 3 3 4 8 46 0 20 4 0 0 0 0 0
2 0 0 0 0 0 0 0 0 0 0 0 6 687 885 1284 1390 2052 1487 1281 881 826 1340 713 593 491 520 564 225 167 154 0 0 1 4 3 2 3 3 7 38 0 0 0 0 0 0 0 0
0 0 0 0 0 0 0 0 0 0 0 0 3 891 1039 895 1322 1793 1544 1488 1137 1475 1243 755 771 584 628 224 303 121 199 2 0 0 5 4 1 0 2 14 25 0 0 0 0 0 0 0 0
0 0 0 0 0 0 0 0 0 0 0 0 218 967 1216 976 1290 1461 1299 1490 1467 1529 1221 817 718 584 283 205 507 116 130 31 6 0 5 6 0 0 3 5 9 0 0 0 0 0 0 0 0
0 0 0 0 0 0 0 0 0 0 0 0 0 1064 1198 725 1069 1157 1520 1207 1548 1577 1127 702 584 624 621 472 411 279 8 79 11 0 0 0 0 0 0 0 0 0 0 0 0 0 0 0 0
0 0 0 0 0 3 33 0 0 0 0 0 0 383 801 747 610 1248 1341 1249 1272 1289 946 811 741 706 844 594 533 403 174 108 11 0 0 0 0 0 0 0 0 0 0 0 0 0 0 0 0
0 0 0 0 0 0 16 0 0 0 0 0 0 0 197 462 905 1020 1346 1405 1167 1275 1019 833 822 841 817 694 560 406 379 206 9 0 0 0 0 0 0 0 0 0 0 0 0 0 0 0 0
0 0 0 0 0 14 0 0 0 0 0 0 0 0 0 0 269 857 1140 1274 1585 1297 811 690 780 764 728 673 438 301 435 51 5 0 0 0 0 0 0 0 0 0 0 0 0 0 0 0 0
0 0 0 0 0 0 0 0 0 0 0 0 0 0 0 0 0 314 421 807 1341 1394 862 748 772 736 524 412 411 137 595 127 0 0 0 0 0 0 0 0 0 0 0 0 0 0 0 0 0
0 0 0 0 0 4 0 0 0 0 0 0 0 0 0 0 0 40 286 655 1120 1128 1005 707 484 726 578 452 388 276 297 264 8 0 0 0 0 0 0 0 0 0 0 0 0 0 0 0 0
0 0 0 0 0 0 0 0 0 0 9 24 1 0 0 0 0 0 101 350 1145 1109 1019 758 158 573 420 423 368 242 9 37 108 21 1 0 0 0 0 0 0 0 0 0 0 0 0 0 0
0 0 0 0 0 0 0 0 0 0 0 2 5 5 0 0 0 0 0 173 518 1012 579 243 168 370 278 259 356 162 82 87 47 27 35 0 0 0 0 0 0 0 0 0 0 0 0 0 0
0 0 0 0 0 0 0 0 0 0 0 0 0 0 0 0 0 0 0 0 183 540 630 115 132 200 196 234 246 210 36 33 30 38 35 30 0 0 0 0 0 0 0 0 0 0 0 0 0
0 0 0 50 0 0 0 0 0 0 0 0 0 0 0 0 0 0 0 0 244 292 442 66 53 168 144 187 38 124 68 57 47 19 47 59 26 0 0 0 0 0 0 0 0 0 0 0 0
0 0 0 0 0 0 0 0 0 11 0 6 0 0 0 0 0 0 0 0 157 230 159 42 48 51 62 68 17 32 68 32 47 49 30 19 37 6 0 0 0 0 0 0 0 0 0 0 0
3 0 0 0 0 0 0 0 0 0 0 9 1 2 0 0 0 0 0 0 85 179 193 100 44 46 48 28 39 9 51 49 39 61 55 31 7 17 0 0 0 0 0 0 0 0 0 0 0
0 9 0 0 3 0 0 43 1 0 0 0 0 4 0 0 0 0 0 0 61 173 181 144 37 10 40 15 39 42 11 46 50 61 45 47 13 23 3 0 0 0 0 0 0 0 0 0 0
0 0 0 0 0 0 0 0 0 76 1 0 6 1 1 0 1 3 0 0 86 129 195 152 55 10 44 16 34 5 20 52 26 44 53 50 32 21 0 0 0 0 0 0 0 0 0 0 0
0 0 0 0 0 0 0 0 9 0 31 17 7 26 0 0 0 0 0 38 189 196 225 220 119 25 122 15 21 15 7 5 31 31 45 35 27 3 0 0 0 0 0 0 0 0 0 0 0
0 0 0 0 0 0 0 0 1 0 0 42 34 2 0 0 0 0 0 55 218 261 214 229 203 32 71 33 38 15 31 75 33 29 18 16 52 6 0 0 0 0 0 0 0 0 0 0 0
CIN
-0 -0 -0 -0 -0 -0 -0 -0 -0 -0 -0 -0 -0 -0 -0 -45 -5 -199 -231 -450 -492 -302 -104 -46 -0 -0 -0 -0 -0 -1 -3 -265 -0 -0 -0 -0 -0 -0 -0 -0 -0 -0 -0 -0 -0 -189 -152 -151 -127
-0 -0 -0 -0 -0 -0 -0 -0 -0 -0 -0 -0 -0 -107 -126 -116 -260 -266 -349 -380 -441 -166 -90 -64 -0 -0 -0 -0 -0 -2 -28 -134 -137 -111 -0 -0 -0 -0 -0 -0 -0 -0 -0 -0 -125 -202 -205 -225 -245
-0 -0 -0 -0 -0 -0 -0 -0 -0 -0 -0 -0 -0 -0 -154 -109 -169 -194 -455 -344 -406 -137 -124 -48 -0 -0 -0 -0 -0 -6 -56 -0 -0 -307 -7 -0 -1 -0 -0 -1 -1 -1 -0 -242 -241 -278 -270 -171 -267
-0 -0 -0 -0 -0 -0 -0 -0 -0 -0 -0 -0 -0 -0 -182 -158 -154 -178 -302 -312 -285 -154 -162 -16 -0 -0 -0 -0 -0 -17 -133 -0 -0 -0 -354 -433 -0 -3 -0 -0 -3 -0 -0 -339 -8 -278 -6 -0 -7
-0 -0 -0 -0 -0 -0 -0 -0 -0 -0 -0 -0 -0 -0 -82 -130 -145 -313 -250 -252 -201 -154 -81 -39 -0 -0 -0 -0 -0 -22 -107 -285 -0 -0 -2 -0 -1 -2 -0 -0 -1 -0 -0 -26 -277 -240 -0 -0 -0
-0 -0 -0 -0 -0 -0 -0 -0 -0 -0 -0 -0 -0 -90 -67 -131 -237 -212 -206 -219 -153 -130 -61 -39 -22 -1 -0 -0 -2 -56 -171 -263 -0 -0 -4 -2 -0 -1 -2 -0 -0 -1 -1 -153 -99 -173 -0 -0 -3
-0 -0 -0 -0 -0 -0 -0 -0 -0 -0 -0 -0 -0 -118 -63 -130 -153 -91 -130 -133 -118 -92 -64 -59 -55 -38 -14 -22 -55 -146 -230 -0 -100 -109 -0 -1 -0 -1 -0 -0 -0 -0 -0 -79 -0 -0 -2 -16 -10
-0 -0 -0 -0 -0 -0 -0 -0 -0 -0 -0 -0 -0 -228 -26 -73 -53 -68 -38 -12 -32 -60 -41 -61 -71 -64 -2 -63 -65 -138 -373 -1 -2 -1 -6 -8 -9 -5 -0 -1 -194 -18 -36 -0 -0 -0 -4 -16 -19
-0 -0 -0 -0 -0 -0 -0 -0 -0 -0 -0 -0 -0 -144 -87 -49 -55 -33 -1 -3 -4 -5 -18 -50 -61 -97 -53 -78 -57 -128 -47 -13 -11 -12 -21 -15 -0 -0 -4 -17 -2 -0 -0 -0 -0 -2 -18 -36 -35
-0 -0 -0 -0 -0 -0 -0 -0 -0 -0 -0 -0 -172 -81 -98 -59 -38 -37 -56 -24 -7 -8 -16 -50 -68 -105 -54 -44 -55 -120 -269 -1 -7 -0 -0 -0 -0 -0 -2 -2 -6 -2 -1 -0 -2 -12 -0 -0 -0
-0 -0 -0 -0 -0 -0 -0 -0 -0 -0 -0 -0 -211 -58 -88 -104 -4 -90 -45 -73 -97 -62 -17 -65 -73 -73 -37 -41 -68 -109 -157 -0 -0 -0 -0 -0 -0 -0 -0 -0 -2 -3 -2 -0 -0 -0 -0 -0 -0
-0 -0 -0 -0 -0 -0 -0 -0 -0 -0 -0 -0 -10 -136 -88 -58 -28 -3 -43 -44 -81 -73 -14 -53 -74 -69 -68 -45 -73 -91 -94 -0 -0 -0 -0 -0 -0 -0 -0 -8 -0 -0 -0 -0 -0 -0 -0 -0 -0
-0 -0 -0 -0 -0 -0 -0 -0 -0 -0 -0 -0 -11 -49 -43 -80 -47 -10 -41 -26 -41 -3 -4 -46 -39 -53 -49 -105 -61 -111 -63 -61 -0 -0 -0 -0 -0 -0 -0 -3 -0 -0 -0 -0 -0 -0 -0 -0 -0
-0 -0 -0 -0 -0 -0 -0 -0 -0 -0 -0 -0 -52 -9 -19 -47 -20 -25 -27 -15 -8 -0 -2 -25 -46 -64 -102 -113 -34 -110 -72 -133 -202 -0 -1 -0 -0 -0 -3 -1 -0 -0 -0 -0 -0 -0 -0 -0 -0
-0 -0 -0 -0 -0 -0 -0 -0 -0 -0 -0 -0 -0 -0 -8 -47 -40 -40 -18 -30 -14 -0 -16 -6 -49 -17 -24 -34 -39 -57 -111 -89 -190 -0 -0 -0 -0 -0 -0 -0 -0 -0 -0 -0 -0 -0 -0 -0 -0
-0 -0 -0 -0 -0 -0 -0 -0 -0 -0 -0 -0 -0 -12 -20 -58 -49 -22 -25 -28 -24 -16 -25 -34 -18 -23 -1 -13 -21 -37 -51 -78 -150 -0 -0 -0 -0 -0 -0 -0 -0 -0 -0 -0 -0 -0 -0 -0 -0
-0 -0 -0 -0 -0 -0 -1 -0 -0 -0 -0 -0 -0 -0 -38 -58 -38 -25 -7 -3 -17 -17 -24 -24 -23 -20 -15 -1 -11 -19 -17 -47 -64 -0 -0 -0 -0 -0 -0 -0 -0 -0 -0 -0 -0 -0 -0 -0 -0
-0 -0 -0 -0 -0 -3 -0 -0 -0 -0 -0 -0 -0 -0 -0 -0 -72 -35 -8 -0 -0 -6 -33 -34 -29 -21 -12 -8 -3 -8 -8 -48 -38 -0 -0 -0 -0 -0 -0 -0 -0 -0 -0 -0 -0 -0 -0 -0 -0
-0 -0 -0 -0 -0 -0 -0 -0 -0 -0 -0 -0 -0 -0 -0 -0 -0 -85 -69 -19 -0 -0 -9 -20 -11 -10 -15 -2 -2 -31 -0 -38 -0 -0 -0 -0 -0 -0 -0 -0 -0 -0 -0 -0 -0 -0 -0 -0 -0
-0 -0 -0 -0 -0 -1 -0 -0 -0 -0 -0 -0 -0 -0 -0 -0 -0 -16 -50 -27 -0 -0 -0 -6 -18 -8 -2 -0 -7 -3 -0 -2 -31 -0 -0 -0 -0 -0 -0 -0 -0 -0 -0 -0 -0 -0 -0 -0 -0
-0 -0 -0 -0 -0 -0 -0 -0 -0 -0 -2 -1 -1 -0 -0 -0 -0 -0 -30 -27 -0 -0 -0 -2 -52 -2 -4 -1 -3 -0 -5 -30 -11 -47 -0 -0 -0 -0 -0 -0 -0 -0 -0 -0 -0 -0 -0 -0 -0
-0 -0 -0 -0 -0 -0 -0 -0 -0 -0 -0 -0 -0 -2 -0 -0 -0 -0 -0 -30 -6 -0 -9 -29 -33 -7 -4 -7 -0 -33 -17 -14 -38 -17 -44 -0 -0 -0 -0 -0 -0 -0 -0 -0 -0 -0 -0 -0 -0
-0 -0 -0 -0 -0 -0 -0 -0 -0 -0 -0 -0 -0 -0 -0 -0 -0 -0 -0 -0 -22 -0 -0 -44 -26 -15 -11 -8 -0 -2 -7 -11 -19 -5 -22 -15 -0 -0 -0 -0 -0 -0 -0 -0 -0 -0 -0 -0 -0
-0 -0 -0 -0 -0 -0 -0 -0 -0 -0 -0 -0 -0 -0 -0 -0 -0 -0 -0 -0 -20 -16 -10 -47 -34 -15 -13 -17 -42 -8 -5 -12 -1 -18 -2 -10 -5 -0 -0 -0 -0 -0 -0 -0 -0 -0 -0 -0 -0
-0 -0 -0 -0 -0 -0 -0 -0 -0 -12 -0 -9 -0 -0 -0 -0 -0 -0 -0 -0 -36 -8 -36 -48 -28 -18 -34 -54 -45 -11 -10 -6 -0 -13 -8 -3 -5 -1 -0 -0 -0 -0 -0 -0 -0 -0 -0 -0 -0
-3 -0 -0 -0 -0 -0 -0 -0 -0 -0 -0 -18 -35 -12 -0 -0 -0 -0 -0 -0 -79 -22 -25 -21 -28 -14 -14 -23 -58 -6 -0 -2 -20 -3 -2 -20 -2 -15 -0 -0 -0 -0 -0 -0 -0 -0 -0 -0 -0
-0 -2 -0 -0 -0 -0 -0 -3 -0 -0 -0 -0 -0 -46 -0 -0 -0 -0 -0 -0 -108 -56 -32 -46 -30 -12 -24 -19 -6 -12 -6 -0 -7 -2 -11 -1 -5 -2 -13 -0 -0 -0 -0 -0 -0 -0 -0 -0 -0
-0 -0 -0 -0 -0 -0 -0 -0 -0 -33 -28 -0 -43 -30 -19 -0 -14 -20 -0 -0 -120 -112 -87 -87 -70 -17 -16 -24 -8 -1 -2 -8 -8 -11 -4 -3 -0 -0 -0 -0 -0 -0 -0 -0 -0 -0 -0 -0 -0
-0 -0 -0 -0 -0 -0 -0 -0 -30 -0 -23 -38 -58 -68 -2 -0 -0 -0 -1 -121 -124 -117 -101 -99 -84 -64 -5 -32 -13 -10 -0 -0 -68 -2 -5 -0 -1 -6 -0 -0 -0 -0 -0 -0 -0 -0 -0 -0 -0
-0 -0 -0 -0 -0 -0 -0 -0 -14 -0 -188 -78 -31 -102 -0 -0 -0 -0 -0 -124 -100 -119 -110 -97 -85 -73 -49 -30 -17 -9 -10 -0 -1 -4 -13 -17 -0 -2 -0 -0 -0 -0 -0 -0 -0 -0 -0 -0 -0
Wind_Speed
nan nan nan nan nan nan nan nan nan nan nan nan nan nan nan nan nan nan 23 20 26 23 17 19 20 21 23 22 20 21 20 nan nan nan nan nan nan nan nan nan nan nan nan nan nan 14 14 15 18
nan nan nan nan nan nan nan nan nan nan nan nan nan nan 32 27 33 33 27 25 30 24 21 18 20 23 24 25 23 23 20 17 nan nan nan nan nan nan nan nan nan nan nan nan nan 13 12 14 15
nan nan nan nan nan nan nan nan nan nan nan nan nan nan nan 30 34 33 28 30 33 28 23 20 24 26 25 25 24 22 20 nan nan nan nan nan nan nan nan nan nan nan nan nan 15 nan nan nan 15
nan nan nan nan nan nan nan nan nan nan nan nan nan nan 35 34 35 31 36 34 36 32 28 24 27 29 28 27 25 22 20 nan nan nan nan nan nan nan nan nan nan nan nan nan nan nan nan nan nan
nan nan nan nan nan nan nan nan nan nan nan nan nan nan 37 41 42 44 42 37 36 35 34 31 31 31 30 29 26 23 21 nan nan nan nan nan nan nan nan nan nan nan nan nan 22 22 nan nan nan
nan nan nan nan nan nan nan nan nan nan nan nan nan nan 39 40 48 45 45 42 40 39 38 36 36 33 30 30 27 25 23 nan nan nan nan nan nan nan nan nan nan nan nan nan nan nan nan nan nan
nan nan nan nan nan nan nan nan nan nan nan nan nan 40 44 43 41 48 46 46 44 43 43 39 38 34 30 29 28 27 26 nan nan nan nan nan nan nan nan nan nan nan nan nan nan nan nan nan nan
nan nan nan nan nan nan nan nan nan nan nan nan nan nan 44 39 40 46 48 48 46 47 46 44 40 37 31 27 29 28 nan nan nan nan nan nan nan nan nan nan nan nan nan nan nan nan nan nan nan
nan nan nan nan nan nan nan nan nan nan nan nan nan 48 40 50 46 47 48 48 46 46 48 48 43 39 34 30 30 29 nan nan nan nan nan nan nan nan nan nan nan nan nan nan nan nan nan nan nan
nan nan nan nan nan nan nan nan nan nan nan nan 47 50 55 50 45 44 39 41 38 42 41 46 46 42 37 33 31 29 nan nan nan nan nan nan nan nan nan nan nan nan nan nan nan nan nan nan nan
nan nan nan nan nan nan nan nan nan nan nan nan 40 42 46 45 38 36 32 32 30 36 40 43 46 43 38 37 35 31 nan nan nan nan nan nan nan nan nan nan nan nan nan nan nan nan nan nan nan
nan nan nan nan nan nan nan nan nan nan nan nan nan 42 41 38 34 29 28 30 32 29 32 38 43 42 35 36 36 34 31 nan nan nan nan nan nan nan nan nan nan nan nan nan nan nan nan nan nan
nan nan nan nan nan nan nan nan nan nan nan nan nan 37 39 35 29 24 26 32 31 29 28 31 37 38 36 35 36 36 34 nan nan nan nan nan nan nan nan nan nan nan nan nan nan nan nan nan nan
nan nan nan nan nan nan nan nan nan nan nan nan 39 32 35 34 27 26 27 30 29 27 27 29 31 31 32 34 34 36 38 nan nan nan nan nan nan nan nan nan nan nan nan nan nan nan nan nan nan
nan nan nan nan nan nan nan nan nan nan nan nan nan 35 34 31 31 28 27 27 28 27 27 28 32 32 32 32 36 38 nan nan nan nan nan nan nan nan nan nan nan nan nan nan nan nan nan nan nan
nan nan nan nan nan nan nan nan nan nan nan nan nan 43 38 35 38 34 32 32 31 32 31 29 31 31 32 32 36 39 41 38 nan nan nan nan nan nan nan nan nan nan nan nan nan nan nan nan nan
nan nan nan nan nan nan nan nan nan nan nan nan nan nan 46 44 42 43 40 38 35 33 32 32 32 30 32 32 34 39 42 41 nan nan nan nan nan nan nan nan nan nan nan nan nan nan nan nan nan
nan nan nan nan nan nan nan nan nan nan nan nan nan nan nan nan 39 43 44 42 39 37 34 34 32 30 32 33 36 39 43 nan nan nan nan nan nan nan nan nan nan nan nan nan nan nan nan nan nan
nan nan nan nan nan nan nan nan nan nan nan nan nan nan nan nan nan 47 43 41 40 40 39 35 35 32 34 36 35 37 36 40 nan nan nan nan nan nan nan nan nan nan nan nan nan nan nan nan nan
nan nan nan nan nan nan nan nan nan nan nan nan nan nan nan nan nan nan 46 41 37 42 43 40 36 33 32 35 31 30 34 35 nan nan nan nan nan nan nan nan nan nan nan nan nan nan nan nan nan
nan nan nan nan nan nan nan nan nan nan nan nan nan nan nan nan nan nan 53 44 45 43 44 42 42 37 34 36 35 39 nan nan 43 nan nan nan nan nan nan nan nan nan nan nan nan nan nan nan nan
nan nan nan nan nan nan nan nan nan nan nan nan nan nan nan nan nan nan nan 52 47 45 46 47 46 44 39 38 38 40 nan nan nan nan nan nan nan nan nan nan nan nan nan nan nan nan nan nan nan
nan nan nan nan nan nan nan nan nan nan nan nan nan nan nan nan nan nan nan nan 50 54 51 52 50 49 46 41 39 37 nan nan nan nan nan nan nan nan nan nan nan nan nan nan nan nan nan nan nan
nan nan nan nan nan nan nan nan nan nan nan nan nan nan nan nan nan nan nan nan 55 56 55 nan nan 52 51 46 nan 35 nan nan nan nan nan nan nan nan nan nan nan nan nan nan nan nan nan nan nan
nan nan nan nan nan nan nan nan nan nan nan nan nan nan nan nan nan nan nan nan 62 57 57 nan nan nan nan nan nan nan nan nan nan nan nan nan nan nan nan nan nan nan nan nan nan nan nan nan nan
nan nan nan nan nan nan nan nan nan nan nan nan nan nan nan nan nan nan nan nan nan 58 57 61 nan nan nan nan nan nan nan nan nan nan nan nan nan nan nan nan nan nan nan nan nan nan nan nan nan
nan nan nan nan nan nan nan nan nan nan nan nan nan nan nan nan nan nan nan nan nan 61 58 61 nan nan nan nan nan nan nan nan nan nan nan nan nan nan nan nan nan nan nan nan nan nan nan nan nan
nan nan nan nan nan nan nan nan nan nan nan nan nan nan nan nan nan nan nan nan nan 56 52 52 nan nan nan nan nan nan nan nan nan nan nan nan nan nan nan nan nan nan nan nan nan nan nan nan nan
nan nan nan nan nan nan nan nan nan nan nan nan nan nan nan nan nan nan nan nan 50 46 49 45 53 nan 61 nan nan nan nan nan nan nan nan nan nan nan nan nan nan nan nan nan nan nan nan nan nan
nan nan nan nan nan nan nan nan nan nan nan nan nan nan nan nan nan nan nan nan 36 39 40 45 50 nan nan nan nan nan nan nan nan nan nan nan nan nan nan nan nan nan nan nan nan nan nan nan nan
Wind_Direction
nan nan nan nan nan nan nan nan nan nan nan nan nan nan nan nan nan nan 250 250 270 290 293 293 302 297 296 289 287 278 271 nan nan nan nan nan nan nan nan nan nan nan nan nan nan 314 325 323 318
nan nan nan nan nan nan nan nan nan nan nan nan nan nan 247 248 253 253 260 259 272 278 282 283 298 292 292 286 283 277 276 274 nan nan nan nan nan nan nan nan nan nan nan nan nan 304 318 310 315
nan nan nan nan nan nan nan nan nan nan nan nan nan nan nan 243 243 267 249 271 273 266 270 274 287 288 287 284 281 281 278 nan nan nan nan nan nan nan nan nan nan nan nan nan 282 nan nan nan 305
nan nan nan nan nan nan nan nan nan nan nan nan nan nan 243 248 258 256 265 267 269 265 260 271 282 284 283 279 279 282 280 nan nan nan nan nan nan nan nan nan nan nan nan nan nan nan nan nan nan
nan nan nan nan nan nan nan nan nan nan nan nan nan nan 240 234 252 264 270 266 266 263 258 263 275 277 280 278 279 279 275 nan nan nan nan nan nan nan nan nan nan nan nan nan 283 286 nan nan nan
nan nan nan nan nan nan nan nan nan nan nan nan nan nan 243 239 260 264 268 267 265 263 262 260 268 271 275 278 279 280 274 nan nan nan nan nan nan nan nan nan nan nan nan nan nan nan nan nan nan
nan nan nan nan nan nan nan nan nan nan nan nan nan 249 241 244 251 266 264 267 260 262 260 257 257 261 269 273 275 277 276 nan nan nan nan nan nan nan nan nan nan nan nan nan nan nan nan nan nan
nan nan nan nan nan nan nan nan nan nan nan nan nan nan 246 246 258 262 263 262 263 261 258 254 253 253 251 256 265 266 nan nan nan nan nan nan nan nan nan nan nan nan nan nan nan nan nan nan nan
nan nan nan nan nan nan nan nan nan nan nan nan nan 250 246 259 258 259 262 261 257 255 255 254 253 251 248 249 251 255 nan nan nan nan nan nan nan nan nan nan nan nan nan nan nan nan nan nan nan
nan nan nan nan nan nan nan nan nan nan nan nan 244 245 255 262 265 270 270 267 264 258 258 254 255 252 248 244 251 242 nan nan nan nan nan nan nan nan nan nan nan nan nan nan nan nan nan nan nan
nan nan nan nan nan nan nan nan nan nan nan nan 258 264 270 270 268 266 263 263 271 258 247 249 251 252 250 242 238 234 nan nan nan nan nan nan nan nan nan nan nan nan nan nan nan nan nan nan nan
nan nan nan nan nan nan nan nan nan nan nan nan nan 267 271 267 261 256 261 254 253 265 256 247 249 250 246 238 236 237 240 nan nan nan nan nan nan nan nan nan nan nan nan nan nan nan nan nan nan
nan nan nan nan nan nan nan nan nan nan nan nan nan 252 262 261 262 256 255 247 241 245 250 248 250 252 247 246 237 236 238 nan nan nan nan nan nan nan nan nan nan nan nan nan nan nan nan nan nan
nan nan nan nan nan nan nan nan nan nan nan nan 236 251 259 264 269 258 247 249 248 252 250 255 261 253 250 245 244 237 237 nan nan nan nan nan nan nan nan nan nan nan nan nan nan nan nan nan nan
nan nan nan nan nan nan nan nan nan nan nan nan nan 241 245 245 254 262 252 250 249 250 256 256 263 265 258 245 242 238 nan nan nan nan nan nan nan nan nan nan nan nan nan nan nan nan nan nan nan
nan nan nan nan nan nan nan nan nan nan nan nan nan 238 237 234 238 248 248 245 246 239 249 253 252 262 259 252 241 237 238 239 nan nan nan nan nan nan nan nan nan nan nan nan nan nan nan nan nan
nan nan nan nan nan nan nan nan nan nan nan nan nan nan 235 234 235 234 244 240 242 245 246 250 253 261 265 256 246 244 243 236 nan nan nan nan nan nan nan nan nan nan nan nan nan nan nan nan nan
nan nan nan nan nan nan nan nan nan nan nan nan nan nan nan nan 239 240 237 238 241 244 245 249 247 251 251 249 246 242 239 nan nan nan nan nan nan nan nan nan nan nan nan nan nan nan nan nan nan
nan nan nan nan nan nan nan nan nan nan nan nan nan nan nan nan nan 235 236 238 237 241 246 250 251 253 248 247 249 250 250 242 nan nan nan nan nan nan nan nan nan nan nan nan nan nan nan nan nan
nan nan nan nan nan nan nan nan nan nan nan nan nan nan nan nan nan nan 234 235 238 243 247 249 251 253 249 250 246 244 250 244 nan nan nan nan nan nan nan nan nan nan nan nan nan nan nan nan nan
nan nan nan nan nan nan nan nan nan nan nan nan nan nan nan nan nan nan 230 233 231 240 247 250 251 249 248 253 243 237 nan nan 236 nan nan nan nan nan nan nan nan nan nan nan nan nan nan nan nan
nan nan nan nan nan nan nan nan nan nan nan nan nan nan nan nan nan nan nan 230 233 232 241 247 248 250 246 249 250 258 nan nan nan nan nan nan nan nan nan nan nan nan nan nan nan nan nan nan nan
nan nan nan nan nan nan nan nan nan nan nan nan nan nan nan nan nan nan nan nan 232 232 234 239 244 247 245 247 246 249 nan nan nan nan nan nan nan nan nan nan nan nan nan nan nan nan nan nan nan
nan nan nan nan nan nan nan nan nan nan nan nan nan nan nan nan nan nan nan nan 233 235 236 nan nan 243 246 247 nan 246 nan nan nan nan nan nan nan nan nan nan nan nan nan nan nan nan nan nan nan
nan nan nan nan nan nan nan nan nan nan nan nan nan nan nan nan nan nan nan nan 235 236 239 nan nan nan nan nan nan nan nan nan nan nan nan nan nan nan nan nan nan nan nan nan nan nan nan nan nan
nan nan nan nan nan nan nan nan nan nan nan nan nan nan nan nan nan nan nan nan nan 236 237 239 nan nan nan nan nan nan nan nan nan nan nan nan nan nan nan nan nan nan nan nan nan nan nan nan nan
nan nan nan nan nan nan nan nan nan nan nan nan nan nan nan nan nan nan nan nan nan 236 238 240 nan nan nan nan nan nan nan nan nan nan nan nan nan nan nan nan nan nan nan nan nan nan nan nan nan
nan nan nan nan nan nan nan nan nan nan nan nan nan nan nan nan nan nan nan nan nan 237 239 242 nan nan nan nan nan nan nan nan nan nan nan nan nan nan nan nan nan nan nan nan nan nan nan nan nan
nan nan nan nan nan nan nan nan nan nan nan nan nan nan nan nan nan nan nan nan 233 233 235 238 244 nan 243 nan nan nan nan nan nan nan nan nan nan nan nan nan nan nan nan nan nan nan nan nan nan
nan nan nan nan nan nan nan nan nan nan nan nan nan nan nan nan nan nan nan nan 224 234 233 231 235 nan nan nan nan nan nan nan nan nan nan nan nan nan nan nan nan nan nan nan nan nan nan nan nan